Flag for Bosnia-Herzegovina Weather past 2 weeks in Tuzla, Bosnia-Herzegovina

Now
46 °F

Scattered clouds.


Feels Like: 44 °F
Forecast: 29 / 46 °F
Wind: 6 mph from Southeast

Location: Tuzla

Current Time: Mar 3, 2015 at 12:48:23 PM

Latest Report: Mar 3, 2015 at 12:30 PM


Visibility: N/A

Pressure: 30.27 "Hg

Humidity: 93%

Dew point: 45 °F

Location of TuzlaLocation

Historic Weather in Tuzla — Graph

°F

Tuzla temperature yesterday

Maximum temperature yesterday: 61 °F (at 12:00 PM)
Minimum temperature yesterday: 30 °F (at 5:00 AM)
Average temperature yesterday: 48 °F

Past Weeks' High & Low Weather Summary

 TemperatureHumidityPressure
High61 °F (Mar 2, 12:00 PM)100% (Feb 16, 11:00 AM)30.72 "Hg (Feb 16, 11:00 AM)
Low16 °F (Feb 19, 5:00 AM)18% (Feb 20, 2:00 PM)29.56 "Hg (Feb 22, 2:00 PM)
Average41 °F83%30.03 "Hg
* Reported Feb 16 11:00 AM — Mar 3 11:30 AM, Tuzla, Weather by CustomWeather, © 2015

Note: Actual official high and low records may vary slightly from our data, if they occured in-between our weather recording intervals... More about our weather records

Advertising

Tuzla weather history for previous 24 hours

 ConditionsComfort  
Time TempWeatherWind HumidityBarometerVisibility
11:30 AM
Tue, Mar 3
43 °FPartly sunny.6 mph100%30.27 "HgN/A
11:00 AM43 °FScattered showers. Partly sunny.13 mph100%30.24 "HgN/A
10:30 AM48 °FPartly sunny.10 mph94%30.24 "HgN/A
10:00 AM46 °FPartly sunny.5 mph100%30.21 "HgN/A
9:30 AM46 °FPassing clouds.3 mph93%30.21 "HgN/A
9:00 AM43 °FPassing clouds.2 mph100%30.21 "HgN/A
8:30 AM41 °FPassing clouds.1 mph100%30.18 "HgN/A
8:00 AM41 °FPassing clouds.1 mph100%30.18 "HgN/A
7:00 AM37 °FSunny.3 mph100%30.15 "Hg10 mi
6:00 AM37 °FClear.1 mph100%30.12 "Hg10 mi
5:30 AM37 °FClear.2 mph100%30.09 "Hg10 mi
5:00 AM37 °FClear.2 mph100%30.09 "Hg10 mi
8:00 PM
Mon, Mar 2
50 °FLight rain. Mostly cloudy.10 mph82%29.80 "HgN/A
7:00 PM52 °FPassing clouds.5 mph67%29.77 "HgN/A
6:00 PM50 °FPassing clouds.5 mph82%29.74 "HgN/A
5:00 PM54 °FScattered clouds.8 mph63%29.77 "HgN/A
4:00 PM55 °FLight rain. Passing clouds.5 mph55%29.77 "HgN/A
3:00 PM57 °FPassing clouds.5 mph48%29.80 "HgN/A
2:00 PM59 °FPassing clouds.9 mph45%29.80 "HgN/A
1:00 PM61 °FPassing clouds.10 mph42%29.83 "HgN/A
12:00 PM61 °FPassing clouds.6 mph42%29.86 "HgN/A
Weather by CustomWeather, © 2015

See weather overviewHow to use our weather pages